^^
Station Historical Data
Daily Summary for April 11, 2019 Units:  English    Metric   Both
« Previous Day
Next Day »
Daily Weekly Monthly Yearly Custom
  High: Low: Average:
Temperature: 32.9 °F 26.3 °F 28.7 °F
Dew Point: 27.5 °F 14.0 °F 21.3 °F
Humidity: 92% 47% 75%
Wind Speed: 34.0mph 6.0mph 15.3mph
Wind Gust: 35.0mph - -
Wind- - NE
Pressure: 30.10 in 29.78 in -
Precipitation: 0.00 in    
Historical Graphs
 
 
Tabular Data for April 11, 2019
Time Temperature Dew Point Pressure Wind Wind Speed Wind Gust Humidity Rainfall Rate (Hourly) solar Conditions
00:04 27.8 °F 23.3 °F 30.10 in NNE 9.0 mph 13.0 mph 83% 0.00 in 0.00 W/m2
00:09 27.9 °F 23.4 °F 30.10 in NNE 7.0 mph 12.0 mph 83% 0.00 in 0.00 W/m2
00:14 28.0 °F 23.5 °F 30.10 in NNE 9.0 mph 12.0 mph 83% 0.00 in 0.00 W/m2
00:19 28.0 °F 23.5 °F 30.09 in NNE 9.0 mph 14.0 mph 83% 0.00 in 0.00 W/m2
00:24 28.1 °F 23.6 °F 30.09 in NNE 10.0 mph 14.0 mph 83% 0.00 in 0.00 W/m2
00:29 28.1 °F 23.6 °F 30.09 in North 7.0 mph 13.0 mph 83% 0.00 in 0.00 W/m2
00:34 28.1 °F 23.6 °F 30.09 in NNE 10.0 mph 13.0 mph 83% 0.00 in 0.00 W/m2
00:39 28.1 °F 23.6 °F 30.09 in North 11.0 mph 14.0 mph 83% 0.00 in 0.00 W/m2
00:44 28.1 °F 23.6 °F 30.09 in North 11.0 mph 14.0 mph 83% 0.00 in 0.00 W/m2
00:49 28.2 °F 23.7 °F 30.08 in NNE 7.0 mph 16.0 mph 83% 0.00 in 0.00 W/m2
00:54 28.1 °F 23.6 °F 30.08 in NNE 13.0 mph 16.0 mph 83% 0.00 in 0.00 W/m2
00:59 28.1 °F 23.3 °F 30.07 in NNE 12.0 mph 16.0 mph 82% 0.00 in 0.00 W/m2
01:04 28.1 °F 23.3 °F 30.07 in NNE 8.0 mph 16.0 mph 82% 0.00 in 0.00 W/m2
01:09 28.1 °F 23.3 °F 30.07 in North 11.0 mph 19.0 mph 82% 0.00 in 0.00 W/m2
01:14 28.1 °F 23.3 °F 30.07 in North 11.0 mph 19.0 mph 82% 0.00 in 0.00 W/m2
01:19 28.0 °F 23.2 °F 30.07 in NNE 10.0 mph 18.0 mph 82% 0.00 in 0.00 W/m2
01:24 27.9 °F 23.1 °F 30.07 in NNW 16.0 mph 18.0 mph 82% 0.00 in 0.00 W/m2
01:29 27.9 °F 23.1 °F 30.07 in NNE 14.0 mph 18.0 mph 82% 0.00 in 0.00 W/m2
01:34 27.9 °F 23.1 °F 30.06 in North 14.0 mph 19.0 mph 82% 0.00 in 0.00 W/m2
01:39 27.9 °F 23.1 °F 30.06 in NNE 13.0 mph 19.0 mph 82% 0.00 in 0.00 W/m2
01:44 27.9 °F 23.1 °F 30.06 in NNE 12.0 mph 18.0 mph 82% 0.00 in 0.00 W/m2
01:49 27.8 °F 23.0 °F 30.06 in NNE 12.0 mph 17.0 mph 82% 0.00 in 0.00 W/m2
01:54 27.9 °F 23.1 °F 30.06 in NNE 9.0 mph 16.0 mph 82% 0.00 in 0.00 W/m2
01:59 27.8 °F 23.0 °F 30.06 in NNE 15.0 mph 15.0 mph 82% 0.00 in 0.00 W/m2
02:04 27.9 °F 23.1 °F 30.06 in NNE 17.0 mph 19.0 mph 82% 0.00 in 0.00 W/m2
02:09 28.0 °F 22.9 °F 30.05 in NNE 12.0 mph 19.0 mph 81% 0.00 in 0.00 W/m2
02:14 28.1 °F 23.0 °F 30.05 in NNE 13.0 mph 18.0 mph 81% 0.00 in 0.00 W/m2
02:19 28.0 °F 22.9 °F 30.05 in North 9.0 mph 17.0 mph 81% 0.00 in 0.00 W/m2
02:24 28.0 °F 22.9 °F 30.05 in NNE 12.0 mph 17.0 mph 81% 0.00 in 0.00 W/m2
02:29 28.0 °F 22.9 °F 30.05 in NNE 13.0 mph 17.0 mph 81% 0.00 in 0.00 W/m2
02:34 28.0 °F 22.9 °F 30.05 in NNE 19.0 mph 19.0 mph 81% 0.00 in 0.00 W/m2
02:39 27.9 °F 22.5 °F 30.05 in NNE 12.0 mph 20.0 mph 80% 0.00 in 0.00 W/m2
02:44 27.9 °F 22.5 °F 30.05 in NNE 8.0 mph 20.0 mph 80% 0.00 in 0.00 W/m2
02:49 27.8 °F 22.4 °F 30.05 in NNE 9.0 mph 15.0 mph 80% 0.00 in 0.00 W/m2
02:54 27.7 °F 22.6 °F 30.04 in NNE 14.0 mph 17.0 mph 81% 0.00 in 0.00 W/m2
02:59 27.6 °F 22.5 °F 30.04 in NE 11.0 mph 17.0 mph 81% 0.00 in 0.00 W/m2
03:04 27.6 °F 22.5 °F 30.04 in NNE 12.0 mph 15.0 mph 81% 0.00 in 0.00 W/m2
03:09 27.5 °F 22.1 °F 30.03 in NNE 9.0 mph 17.0 mph 80% 0.00 in 0.00 W/m2
03:14 27.6 °F 22.2 °F 30.03 in NE 11.0 mph 17.0 mph 80% 0.00 in 0.00 W/m2
03:19 27.6 °F 22.2 °F 30.03 in NE 12.0 mph 17.0 mph 80% 0.00 in 0.00 W/m2
03:24 27.7 °F 22.0 °F 30.03 in NE 9.0 mph 17.0 mph 79% 0.00 in 0.00 W/m2
03:29 27.7 °F 22.0 °F 30.03 in NE 11.0 mph 16.0 mph 79% 0.00 in 0.00 W/m2
03:34 27.6 °F 21.9 °F 30.03 in ENE 12.0 mph 16.0 mph 79% 0.00 in 0.00 W/m2
03:39 27.7 °F 21.7 °F 30.03 in NNE 10.0 mph 16.0 mph 78% 0.00 in 0.00 W/m2
03:44 27.8 °F 21.5 °F 30.02 in NE 13.0 mph 16.0 mph 77% 0.00 in 0.00 W/m2
03:49 27.8 °F 21.5 °F 30.02 in NNE 10.0 mph 18.0 mph 77% 0.00 in 0.00 W/m2
03:54 27.9 °F 21.3 °F 30.02 in NE 8.0 mph 18.0 mph 76% 0.00 in 0.00 W/m2
03:59 28.0 °F 21.1 °F 30.02 in ENE 11.0 mph 22.0 mph 75% 0.00 in 0.00 W/m2
04:04 28.1 °F 20.9 °F 30.02 in NE 12.0 mph 22.0 mph 74% 0.00 in 0.00 W/m2
04:09 28.2 °F 20.7 °F 30.02 in NE 10.0 mph 22.0 mph 73% 0.00 in 0.00 W/m2
04:14 28.1 °F 20.6 °F 30.02 in NE 12.0 mph 18.0 mph 73% 0.00 in 0.00 W/m2
04:19 28.2 °F 20.7 °F 30.02 in NE 11.0 mph 18.0 mph 73% 0.00 in 0.00 W/m2
04:24 28.1 °F 20.2 °F 30.02 in NE 13.0 mph 17.0 mph 72% 0.00 in 0.00 W/m2
04:29 28.1 °F 20.2 °F 30.02 in NNE 10.0 mph 19.0 mph 72% 0.00 in 0.00 W/m2
04:34 28.0 °F 20.5 °F 30.02 in ENE 10.0 mph 19.0 mph 73% 0.00 in 0.00 W/m2
04:39 27.9 °F 20.4 °F 30.02 in NNE 12.0 mph 18.0 mph 73% 0.00 in 0.00 W/m2
04:44 27.9 °F 20.4 °F 30.02 in NNE 12.0 mph 18.0 mph 73% 0.00 in 0.00 W/m2
04:49 27.9 °F 20.0 °F 30.01 in NNE 12.0 mph 18.0 mph 72% 0.00 in 0.00 W/m2
04:54 27.8 °F 19.9 °F 30.02 in ENE 13.0 mph 18.0 mph 72% 0.00 in 0.00 W/m2
04:59 27.7 °F 20.2 °F 30.02 in NE 9.0 mph 18.0 mph 73% 0.00 in 0.00 W/m2
05:04 27.7 °F 20.2 °F 30.01 in ENE 14.0 mph 18.0 mph 73% 0.00 in 0.00 W/m2
05:09 27.6 °F 20.1 °F 30.01 in NE 12.0 mph 17.0 mph 73% 0.00 in 0.00 W/m2
05:14 27.5 °F 20.0 °F 30.01 in NE 14.0 mph 17.0 mph 73% 0.00 in 0.00 W/m2
05:19 27.4 °F 19.9 °F 30.01 in NE 12.0 mph 17.0 mph 73% 0.00 in 0.00 W/m2
05:24 27.4 °F 19.9 °F 30.00 in NE 12.0 mph 16.0 mph 73% 0.00 in 0.00 W/m2
05:29 27.3 °F 19.8 °F 30.00 in ENE 14.0 mph 16.0 mph 73% 0.00 in 0.00 W/m2
05:34 27.3 °F 20.1 °F 30.00 in NE 8.0 mph 15.0 mph 74% 0.00 in 0.00 W/m2
05:39 27.2 °F 20.0 °F 30.00 in NE 11.0 mph 16.0 mph 74% 0.00 in 0.00 W/m2
05:44 27.2 °F 20.0 °F 30.00 in NE 12.0 mph 16.0 mph 74% 0.00 in 0.00 W/m2
05:49 27.3 °F 19.8 °F 29.99 in NE 12.0 mph 15.0 mph 73% 0.00 in 0.00 W/m2
05:54 27.4 °F 19.6 °F 29.99 in NE 8.0 mph 15.0 mph 72% 0.00 in 0.00 W/m2
05:59 27.4 °F 19.2 °F 29.99 in NE 9.0 mph 15.0 mph 71% 0.00 in 0.00 W/m2
06:04 27.5 °F 19.0 °F 29.99 in NE 11.0 mph 15.0 mph 70% 0.00 in 0.00 W/m2
06:09 27.5 °F 19.0 °F 29.99 in NE 9.0 mph 15.0 mph 70% 0.00 in 0.00 W/m2
06:14 27.5 °F 20.9 °F 29.99 in NE 11.0 mph 16.0 mph 76% 0.00 in 0.00 W/m2
06:19 27.4 °F 19.2 °F 29.99 in NE 8.0 mph 16.0 mph 71% 0.00 in 0.00 W/m2
06:24 27.4 °F 19.2 °F 29.99 in NE 8.0 mph 14.0 mph 71% 0.00 in 0.00 W/m2
06:29 27.3 °F 19.1 °F 29.99 in NE 9.0 mph 13.0 mph 71% 0.00 in 0.00 W/m2
06:34 27.3 °F 19.1 °F 29.99 in NNE 7.0 mph 15.0 mph 71% 0.00 in 0.00 W/m2
06:39 27.2 °F 19.0 °F 29.99 in NNE 6.0 mph 15.0 mph 71% 0.00 in 0.00 W/m2
06:44 27.1 °F 18.9 °F 29.99 in NNE 9.0 mph 14.0 mph 71% 0.00 in 0.00 W/m2
06:49 26.9 °F 19.1 °F 29.99 in NE 9.0 mph 12.0 mph 72% 0.00 in 0.00 W/m2
06:54 26.8 °F 19.0 °F 29.99 in NNE 7.0 mph 14.0 mph 72% 0.00 in 0.00 W/m2
06:59 26.7 °F 19.2 °F 29.98 in NE 9.0 mph 14.0 mph 73% 0.00 in 0.00 W/m2
07:04 26.6 °F 19.1 °F 29.99 in NNE 10.0 mph 14.0 mph 73% 0.00 in 0.00 W/m2
07:09 26.5 °F 19.3 °F 29.98 in NNE 7.0 mph 14.0 mph 74% 0.00 in 5.00 W/m2
07:14 26.5 °F 19.3 °F 29.98 in NE 11.0 mph 14.0 mph 74% 0.00 in 9.00 W/m2
07:19 26.4 °F 19.2 °F 29.98 in NE 8.0 mph 15.0 mph 74% 0.00 in 14.00 W/m2
07:24 26.4 °F 19.2 °F 29.98 in NNE 8.0 mph 15.0 mph 74% 0.00 in 21.00 W/m2
07:29 26.3 °F 19.5 °F 29.98 in NNE 13.0 mph 16.0 mph 75% 0.00 in 30.00 W/m2
07:34 26.4 °F 19.5 °F 29.98 in NNE 9.0 mph 17.0 mph 75% 0.00 in 37.00 W/m2
07:39 26.4 °F 19.5 °F 29.98 in NE 14.0 mph 17.0 mph 75% 0.00 in 47.00 W/m2
07:44 26.4 °F 19.5 °F 29.98 in NNE 10.0 mph 16.0 mph 75% 0.00 in 56.00 W/m2
07:49 26.5 °F 19.6 °F 29.98 in NNE 14.0 mph 16.0 mph 75% 0.00 in 63.00 W/m2
07:54 26.5 °F 19.6 °F 29.98 in NNE 12.0 mph 16.0 mph 75% 0.00 in 69.00 W/m2
07:59 26.6 °F 19.7 °F 29.98 in NE 13.0 mph 17.0 mph 75% 0.00 in 72.00 W/m2
08:04 26.6 °F 19.7 °F 29.98 in North 10.0 mph 18.0 mph 75% 0.00 in 74.00 W/m2
08:09 26.7 °F 19.5 °F 29.97 in NNE 8.0 mph 18.0 mph 74% 0.00 in 79.00 W/m2
08:14 26.9 °F 19.4 °F 29.98 in NE 10.0 mph 16.0 mph 73% 0.00 in 90.00 W/m2
08:19 27.1 °F 19.6 °F 29.97 in NE 13.0 mph 17.0 mph 73% 0.00 in 102.00 W/m2
08:24 27.2 °F 19.4 °F 29.97 in NNE 13.0 mph 19.0 mph 72% 0.00 in 111.00 W/m2
08:29 27.4 °F 19.2 °F 29.96 in NE 17.0 mph 22.0 mph 71% 0.00 in 113.00 W/m2
08:34 27.5 °F 19.0 °F 29.97 in NE 19.0 mph 26.0 mph 70% 0.00 in 116.00 W/m2
08:39 27.8 °F 19.6 °F 29.96 in NE 19.0 mph 26.0 mph 71% 0.00 in 137.00 W/m2
08:44 27.9 °F 19.4 °F 29.96 in NE 16.0 mph 25.0 mph 70% 0.00 in 141.00 W/m2
08:49 28.1 °F 19.2 °F 29.96 in NE 13.0 mph 25.0 mph 69% 0.00 in 146.00 W/m2
08:54 28.3 °F 19.1 °F 29.96 in NE 16.0 mph 23.0 mph 68% 0.00 in 179.00 W/m2
08:59 28.5 °F 18.6 °F 29.96 in NE 16.0 mph 23.0 mph 66% 0.00 in 192.00 W/m2
09:04 28.8 °F 18.5 °F 29.96 in NE 16.0 mph 23.0 mph 65% 0.00 in 255.00 W/m2
09:09 29.3 °F 19.0 °F 29.96 in NE 20.0 mph 27.0 mph 65% 0.00 in 234.00 W/m2
09:14 29.4 °F 18.3 °F 29.96 in NE 15.0 mph 27.0 mph 63% 0.00 in 185.00 W/m2
09:19 29.2 °F 17.8 °F 29.96 in NNE 14.0 mph 28.0 mph 62% 0.00 in 251.00 W/m2
09:24 29.7 °F 18.6 °F 29.96 in NE 15.0 mph 28.0 mph 63% 0.00 in 272.00 W/m2
09:29 30.0 °F 18.2 °F 29.96 in ENE 17.0 mph 25.0 mph 61% 0.00 in 267.00 W/m2
09:34 29.9 °F 17.3 °F 29.96 in NE 16.0 mph 25.0 mph 59% 0.00 in 220.00 W/m2
09:39 29.7 °F 16.7 °F 29.96 in NE 19.0 mph 26.0 mph 58% 0.00 in 251.00 W/m2
09:44 29.7 °F 16.7 °F 29.95 in NE 20.0 mph 26.0 mph 58% 0.00 in 257.00 W/m2
09:49 29.9 °F 17.3 °F 29.95 in NE 15.0 mph 26.0 mph 59% 0.00 in 274.00 W/m2
09:54 30.1 °F 16.7 °F 29.94 in NE 14.0 mph 26.0 mph 57% 0.00 in 239.00 W/m2
09:59 30.1 °F 16.7 °F 29.95 in NE 15.0 mph 28.0 mph 57% 0.00 in 239.00 W/m2
10:04 30.1 °F 15.9 °F 29.95 in ENE 21.0 mph 28.0 mph 55% 0.00 in 248.00 W/m2
10:09 30.3 °F 16.9 °F 29.95 in NE 19.0 mph 26.0 mph 57% 0.00 in 251.00 W/m2
10:14 30.3 °F 16.9 °F 29.95 in ENE 16.0 mph 24.0 mph 57% 0.00 in 304.00 W/m2
10:19 30.4 °F 17.0 °F 29.95 in NNE 13.0 mph 24.0 mph 57% 0.00 in 264.00 W/m2
10:24 30.3 °F 16.9 °F 29.95 in NE 17.0 mph 28.0 mph 57% 0.00 in 260.00 W/m2
10:29 30.1 °F 17.1 °F 29.95 in NE 18.0 mph 28.0 mph 58% 0.00 in 239.00 W/m2
10:34 30.3 °F 17.3 °F 29.94 in NE 15.0 mph 26.0 mph 58% 0.00 in 236.00 W/m2
10:39 30.2 °F 16.8 °F 29.94 in NE 19.0 mph 24.0 mph 57% 0.00 in 220.00 W/m2
10:44 30.3 °F 17.3 °F 29.94 in NE 12.0 mph 24.0 mph 58% 0.00 in 204.00 W/m2
10:49 30.3 °F 16.9 °F 29.93 in NNE 11.0 mph 24.0 mph 57% 0.00 in 181.00 W/m2
10:54 30.3 °F 17.3 °F 29.93 in NE 13.0 mph 24.0 mph 58% 0.00 in 149.00 W/m2
10:59 30.2 °F 16.8 °F 29.93 in NE 20.0 mph 23.0 mph 57% 0.00 in 135.00 W/m2
11:04 30.0 °F 16.6 °F 29.93 in NE 19.0 mph 23.0 mph 57% 0.00 in 135.00 W/m2
11:09 30.0 °F 16.6 °F 29.93 in NE 11.0 mph 25.0 mph 57% 0.00 in 149.00 W/m2
11:14 30.2 °F 17.2 °F 29.93 in NE 15.0 mph 25.0 mph 58% 0.00 in 149.00 W/m2
11:19 30.2 °F 16.8 °F 29.94 in NE 17.0 mph 23.0 mph 57% 0.00 in 137.00 W/m2
11:24 30.3 °F 16.9 °F 29.93 in NNE 13.0 mph 22.0 mph 57% 0.00 in 120.00 W/m2
11:29 30.2 °F 16.4 °F 29.94 in NNE 10.0 mph 24.0 mph 56% 0.00 in 123.00 W/m2
11:34 30.2 °F 16.8 °F 29.94 in NE 15.0 mph 24.0 mph 57% 0.00 in 132.00 W/m2
11:39 30.2 °F 16.4 °F 29.94 in NNE 20.0 mph 24.0 mph 56% 0.00 in 142.00 W/m2
11:44 30.3 °F 16.5 °F 29.94 in NE 15.0 mph 24.0 mph 56% 0.00 in 148.00 W/m2
11:49 30.4 °F 16.6 °F 29.95 in NNE 16.0 mph 28.0 mph 56% 0.00 in 134.00 W/m2
11:54 30.3 °F 16.5 °F 29.94 in NNE 14.0 mph 29.0 mph 56% 0.00 in 169.00 W/m2
11:59 30.3 °F 16.0 °F 29.94 in NE 19.0 mph 29.0 mph 55% 0.00 in 171.00 W/m2
12:04 30.5 °F 15.4 °F 29.94 in NE 24.0 mph 25.0 mph 53% 0.00 in 172.00 W/m2
12:09 30.5 °F 15.4 °F 29.94 in NNE 17.0 mph 28.0 mph 53% 0.00 in 181.00 W/m2
12:14 30.7 °F 16.0 °F 29.94 in NE 21.0 mph 28.0 mph 54% 0.00 in 197.00 W/m2
12:19 30.6 °F 16.3 °F 29.93 in NE 24.0 mph 26.0 mph 55% 0.00 in 232.00 W/m2
12:24 30.5 °F 16.2 °F 29.93 in NE 25.0 mph 32.0 mph 55% 0.00 in 188.00 W/m2
12:29 30.3 °F 17.3 °F 29.93 in NE 25.0 mph 32.0 mph 58% 0.00 in 204.00 W/m2
12:34 30.2 °F 17.6 °F 29.94 in NE 25.0 mph 32.0 mph 59% 0.00 in 176.00 W/m2
12:39 29.6 °F 18.5 °F 29.93 in NE 23.0 mph 32.0 mph 63% 0.00 in 202.00 W/m2
12:44 29.3 °F 19.3 °F 29.93 in NE 25.0 mph 35.0 mph 66% 0.00 in 213.00 W/m2
12:49 29.1 °F 19.5 °F 29.93 in NNE 26.0 mph 35.0 mph 67% 0.00 in 225.00 W/m2
12:54 29.1 °F 19.5 °F 29.92 in ENE 22.0 mph 31.0 mph 67% 0.00 in 230.00 W/m2
12:59 29.3 °F 20.0 °F 29.92 in NE 21.0 mph 30.0 mph 68% 0.00 in 227.00 W/m2
13:04 29.7 °F 20.4 °F 29.91 in NE 17.0 mph 29.0 mph 68% 0.00 in 302.00 W/m2
13:09 30.0 °F 20.4 °F 29.90 in NNE 23.0 mph 26.0 mph 67% 0.00 in 309.00 W/m2
13:14 30.3 °F 19.9 °F 29.89 in NNE 22.0 mph 26.0 mph 65% 0.00 in 283.00 W/m2
13:19 30.7 °F 19.6 °F 29.89 in NNE 18.0 mph 25.0 mph 63% 0.00 in 246.00 W/m2
13:24 31.0 °F 18.7 °F 29.88 in North 18.0 mph 23.0 mph 60% 0.00 in 243.00 W/m2
13:29 31.5 °F 18.8 °F 29.87 in North 21.0 mph 26.0 mph 59% 0.00 in 234.00 W/m2
13:34 32.0 °F 17.2 °F 29.87 in North 26.0 mph 30.0 mph 54% 0.00 in 255.00 W/m2
13:39 32.4 °F 16.7 °F 29.87 in North 19.0 mph 30.0 mph 52% 0.00 in 243.00 W/m2
13:44 32.4 °F 15.8 °F 29.87 in NNE 22.0 mph 29.0 mph 50% 0.00 in 172.00 W/m2
13:49 32.1 °F 14.6 °F 29.87 in NE 19.0 mph 29.0 mph 48% 0.00 in 169.00 W/m2
13:54 31.9 °F 14.4 °F 29.86 in NNE 20.0 mph 30.0 mph 48% 0.00 in 160.00 W/m2
13:59 32.0 °F 14.5 °F 29.87 in NNE 11.0 mph 30.0 mph 48% 0.00 in 158.00 W/m2
14:04 32.0 °F 14.0 °F 29.86 in NNE 14.0 mph 30.0 mph 47% 0.00 in 193.00 W/m2
14:09 32.2 °F 14.2 °F 29.86 in North 16.0 mph 26.0 mph 47% 0.00 in 186.00 W/m2
14:14 32.4 °F 14.9 °F 29.86 in NNE 16.0 mph 26.0 mph 48% 0.00 in 218.00 W/m2
14:19 32.6 °F 14.6 °F 29.86 in NE 19.0 mph 28.0 mph 47% 0.00 in 209.00 W/m2
14:24 32.7 °F 15.1 °F 29.85 in NNE 13.0 mph 29.0 mph 48% 0.00 in 200.00 W/m2
14:29 32.8 °F 15.7 °F 29.85 in NNE 17.0 mph 29.0 mph 49% 0.00 in 236.00 W/m2
14:34 32.8 °F 16.2 °F 29.85 in NNE 27.0 mph 29.0 mph 50% 0.00 in 251.00 W/m2
14:39 32.8 °F 16.2 °F 29.85 in NNE 23.0 mph 35.0 mph 50% 0.00 in 230.00 W/m2
14:44 32.8 °F 16.6 °F 29.85 in NNE 22.0 mph 35.0 mph 51% 0.00 in 211.00 W/m2
14:49 32.7 °F 17.0 °F 29.85 in North 14.0 mph 33.0 mph 52% 0.00 in 216.00 W/m2
14:54 32.9 °F 16.7 °F 29.85 in North 25.0 mph 31.0 mph 51% 0.00 in 199.00 W/m2
14:59 32.6 °F 16.4 °F 29.85 in NNE 21.0 mph 31.0 mph 51% 0.00 in 183.00 W/m2
15:04 32.6 °F 16.9 °F 29.85 in North 20.0 mph 30.0 mph 52% 0.00 in 148.00 W/m2
15:09 32.4 °F 16.7 °F 29.85 in NNE 21.0 mph 35.0 mph 52% 0.00 in 172.00 W/m2
15:14 32.3 °F 17.5 °F 29.85 in NNE 16.0 mph 35.0 mph 54% 0.00 in 185.00 W/m2
15:19 32.3 °F 17.5 °F 29.85 in NNE 23.0 mph 32.0 mph 54% 0.00 in 225.00 W/m2
15:24 32.5 °F 18.1 °F 29.84 in NNE 23.0 mph 32.0 mph 55% 0.00 in 188.00 W/m2
15:29 32.0 °F 18.5 °F 29.84 in NNE 18.0 mph 31.0 mph 57% 0.00 in 174.00 W/m2
15:34 32.0 °F 19.3 °F 29.85 in NNE 16.0 mph 31.0 mph 59% 0.00 in 146.00 W/m2
15:39 31.9 °F 19.6 °F 29.84 in NNE 20.0 mph 30.0 mph 60% 0.00 in 151.00 W/m2
15:44 31.6 °F 20.1 °F 29.84 in NE 18.0 mph 34.0 mph 62% 0.00 in 149.00 W/m2
15:49 31.2 °F 20.4 °F 29.84 in NE 16.0 mph 34.0 mph 64% 0.00 in 158.00 W/m2
15:54 31.1 °F 21.4 °F 29.84 in NNE 23.0 mph 32.0 mph 67% 0.00 in 169.00 W/m2
15:59 31.0 °F 21.7 °F 29.84 in North 34.0 mph 34.0 mph 68% 0.00 in 156.00 W/m2
16:04 30.8 °F 22.2 °F 29.84 in NNE 28.0 mph 34.0 mph 70% 0.00 in 163.00 W/m2
16:09 30.7 °F 22.4 °F 29.84 in NNE 19.0 mph 35.0 mph 71% 0.00 in 172.00 W/m2
16:14 30.7 °F 23.1 °F 29.84 in NNE 25.0 mph 35.0 mph 73% 0.00 in 146.00 W/m2
16:19 30.0 °F 23.4 °F 29.84 in North 22.0 mph 35.0 mph 76% 0.00 in 113.00 W/m2
16:24 29.5 °F 23.8 °F 29.83 in North 23.0 mph 35.0 mph 79% 0.00 in 102.00 W/m2
16:29 29.2 °F 24.1 °F 29.83 in North 29.0 mph 34.0 mph 81% 0.00 in 98.00 W/m2
16:34 28.9 °F 24.1 °F 29.83 in NNE 19.0 mph 34.0 mph 82% 0.00 in 104.00 W/m2
16:39 28.9 °F 24.4 °F 29.82 in NNE 17.0 mph 29.0 mph 83% 0.00 in 105.00 W/m2
16:44 29.1 °F 24.6 °F 29.82 in NNW 17.0 mph 30.0 mph 83% 0.00 in 90.00 W/m2
16:49 29.1 °F 24.6 °F 29.82 in North 22.0 mph 30.0 mph 83% 0.00 in 98.00 W/m2
16:54 29.1 °F 24.9 °F 29.82 in North 24.0 mph 34.0 mph 84% 0.00 in 109.00 W/m2
16:59 29.1 °F 24.9 °F 29.82 in NNE 24.0 mph 34.0 mph 84% 0.00 in 111.00 W/m2
17:04 29.1 °F 25.2 °F 29.82 in NNE 18.0 mph 30.0 mph 85% 0.00 in 121.00 W/m2
17:09 29.2 °F 25.5 °F 29.82 in North 21.0 mph 28.0 mph 86% 0.00 in 100.00 W/m2
17:14 29.2 °F 25.5 °F 29.82 in North 25.0 mph 30.0 mph 86% 0.00 in 86.00 W/m2
17:19 29.2 °F 25.5 °F 29.82 in North 19.0 mph 30.0 mph 86% 0.00 in 84.00 W/m2
17:24 29.3 °F 25.9 °F 29.81 in North 20.0 mph 30.0 mph 87% 0.00 in 81.00 W/m2
17:29 29.4 °F 26.0 °F 29.81 in North 20.0 mph 30.0 mph 87% 0.00 in 91.00 W/m2
17:34 29.4 °F 26.0 °F 29.80 in NNW 16.0 mph 32.0 mph 87% 0.00 in 83.00 W/m2
17:39 29.5 °F 27.5 °F 29.80 in North 15.0 mph 33.0 mph 92% 0.00 in 98.00 W/m2
17:44 29.7 °F 26.0 °F 29.81 in North 16.0 mph 34.0 mph 86% 0.00 in 102.00 W/m2
17:49 29.7 °F 26.0 °F 29.80 in North 16.0 mph 34.0 mph 86% 0.00 in 104.00 W/m2
17:54 29.7 °F 26.0 °F 29.80 in North 20.0 mph 32.0 mph 86% 0.00 in 86.00 W/m2
17:59 29.6 °F 26.2 °F 29.80 in North 16.0 mph 31.0 mph 87% 0.00 in 72.00 W/m2
18:04 29.5 °F 25.8 °F 29.80 in North 15.0 mph 32.0 mph 86% 0.00 in 70.00 W/m2
18:09 29.6 °F 25.9 °F 29.80 in North 26.0 mph 33.0 mph 86% 0.00 in 63.00 W/m2
18:14 29.4 °F 25.7 °F 29.80 in NNE 13.0 mph 33.0 mph 86% 0.00 in 62.00 W/m2
18:19 29.2 °F 25.8 °F 29.81 in North 21.0 mph 29.0 mph 87% 0.00 in 67.00 W/m2
18:24 29.0 °F 25.9 °F 29.81 in NNE 21.0 mph 29.0 mph 88% 0.00 in 63.00 W/m2
18:29 28.9 °F 25.8 °F 29.81 in NE 15.0 mph 29.0 mph 88% 0.00 in 56.00 W/m2
18:34 28.9 °F 26.1 °F 29.81 in NNE 16.0 mph 25.0 mph 89% 0.00 in 49.00 W/m2
18:39 28.8 °F 26.0 °F 29.81 in NNE 19.0 mph 25.0 mph 89% 0.00 in 49.00 W/m2
18:44 28.7 °F 25.9 °F 29.81 in NNE 12.0 mph 22.0 mph 89% 0.00 in 51.00 W/m2
18:49 28.7 °F 25.9 °F 29.81 in NNE 10.0 mph 22.0 mph 89% 0.00 in 47.00 W/m2
18:54 28.7 °F 25.9 °F 29.82 in NE 13.0 mph 23.0 mph 89% 0.00 in 40.00 W/m2
18:59 28.5 °F 25.7 °F 29.82 in NNE 24.0 mph 28.0 mph 89% 0.00 in 35.00 W/m2
19:04 28.4 °F 25.8 °F 29.81 in NNE 23.0 mph 29.0 mph 90% 0.00 in 33.00 W/m2
19:09 28.4 °F 25.8 °F 29.82 in North 17.0 mph 29.0 mph 90% 0.00 in 39.00 W/m2
19:14 28.4 °F 25.8 °F 29.82 in North 13.0 mph 27.0 mph 90% 0.00 in 42.00 W/m2
19:19 28.3 °F 25.7 °F 29.82 in NNE 18.0 mph 21.0 mph 90% 0.00 in 42.00 W/m2
19:24 28.3 °F 25.7 °F 29.82 in NNE 13.0 mph 21.0 mph 90% 0.00 in 32.00 W/m2
19:29 28.5 °F 25.9 °F 29.81 in North 21.0 mph 31.0 mph 90% 0.00 in 26.00 W/m2
19:34 28.4 °F 25.8 °F 29.81 in NNE 19.0 mph 31.0 mph 90% 0.00 in 21.00 W/m2
19:39 28.3 °F 25.7 °F 29.81 in NNE 20.0 mph 29.0 mph 90% 0.00 in 18.00 W/m2
19:44 28.2 °F 25.6 °F 29.81 in NE 11.0 mph 28.0 mph 90% 0.00 in 16.00 W/m2
19:49 28.1 °F 25.5 °F 29.81 in NNE 16.0 mph 24.0 mph 90% 0.00 in 14.00 W/m2
19:54 28.1 °F 25.5 °F 29.81 in NNE 9.0 mph 24.0 mph 90% 0.00 in 12.00 W/m2
19:59 28.0 °F 25.4 °F 29.81 in NE 11.0 mph 21.0 mph 90% 0.00 in 7.00 W/m2
20:04 28.0 °F 25.4 °F 29.80 in NNE 17.0 mph 22.0 mph 90% 0.00 in 5.00 W/m2
20:09 28.1 °F 25.5 °F 29.81 in NE 22.0 mph 29.0 mph 90% 0.00 in 0.00 W/m2
20:14 28.1 °F 25.5 °F 29.81 in NE 15.0 mph 29.0 mph 90% 0.00 in 0.00 W/m2
20:19 28.1 °F 25.5 °F 29.81 in North 16.0 mph 26.0 mph 90% 0.00 in 0.00 W/m2
20:24 28.0 °F 25.4 °F 29.81 in North 24.0 mph 26.0 mph 90% 0.00 in 0.00 W/m2
20:29 27.9 °F 25.3 °F 29.81 in NNE 17.0 mph 25.0 mph 90% 0.00 in 0.00 W/m2
20:34 27.9 °F 25.3 °F 29.81 in North 20.0 mph 30.0 mph 90% 0.00 in 0.00 W/m2
20:39 27.8 °F 25.2 °F 29.81 in NNE 22.0 mph 30.0 mph 90% 0.00 in 0.00 W/m2
20:44 27.7 °F 25.4 °F 29.82 in North 13.0 mph 25.0 mph 91% 0.00 in 0.00 W/m2
20:49 27.7 °F 25.4 °F 29.82 in NNE 20.0 mph 24.0 mph 91% 0.00 in 0.00 W/m2
20:54 27.7 °F 25.4 °F 29.82 in NNE 14.0 mph 24.0 mph 91% 0.00 in 0.00 W/m2
20:59 27.8 °F 25.5 °F 29.82 in NNE 10.0 mph 24.0 mph 91% 0.00 in 0.00 W/m2
21:04 27.8 °F 25.5 °F 29.82 in NE 15.0 mph 22.0 mph 91% 0.00 in 0.00 W/m2
21:09 27.8 °F 25.8 °F 29.81 in NNE 16.0 mph 19.0 mph 92% 0.00 in 0.00 W/m2
21:14 27.8 °F 25.8 °F 29.81 in NE 22.0 mph 23.0 mph 92% 0.00 in 0.00 W/m2
21:19 27.8 °F 25.8 °F 29.82 in NE 21.0 mph 29.0 mph 92% 0.00 in 0.00 W/m2
21:24 27.6 °F 25.6 °F 29.81 in NE 19.0 mph 29.0 mph 92% 0.00 in 0.00 W/m2
21:29 27.5 °F 25.5 °F 29.82 in NNE 14.0 mph 27.0 mph 92% 0.00 in 0.00 W/m2
21:34 27.5 °F 25.5 °F 29.82 in NE 9.0 mph 27.0 mph 92% 0.00 in 0.00 W/m2
21:39 27.5 °F 25.5 °F 29.82 in NNE 12.0 mph 18.0 mph 92% 0.00 in 0.00 W/m2
21:44 27.5 °F 25.5 °F 29.82 in NE 12.0 mph 18.0 mph 92% 0.00 in 0.00 W/m2
21:49 27.4 °F 25.4 °F 29.82 in NE 11.0 mph 21.0 mph 92% 0.00 in 0.00 W/m2
21:54 27.2 °F 25.2 °F 29.82 in NE 8.0 mph 21.0 mph 92% 0.00 in 0.00 W/m2
21:59 27.1 °F 25.1 °F 29.82 in NE 20.0 mph 20.0 mph 92% 0.00 in 0.00 W/m2
22:04 27.0 °F 25.0 °F 29.82 in NNE 15.0 mph 23.0 mph 92% 0.00 in 0.00 W/m2
22:09 27.0 °F 25.0 °F 29.81 in NE 10.0 mph 23.0 mph 92% 0.00 in 0.00 W/m2
22:14 26.9 °F 24.9 °F 29.81 in NNE 17.0 mph 21.0 mph 92% 0.00 in 0.00 W/m2
22:19 26.9 °F 24.9 °F 29.81 in NNE 7.0 mph 21.0 mph 92% 0.00 in 0.00 W/m2
22:24 26.9 °F 24.9 °F 29.81 in NNE 14.0 mph 23.0 mph 92% 0.00 in 0.00 W/m2
22:29 26.8 °F 24.8 °F 29.81 in NNE 11.0 mph 23.0 mph 92% 0.00 in 0.00 W/m2
22:34 26.7 °F 24.7 °F 29.80 in NE 18.0 mph 24.0 mph 92% 0.00 in 0.00 W/m2
22:39 26.6 °F 24.6 °F 29.80 in NE 21.0 mph 24.0 mph 92% 0.00 in 0.00 W/m2
22:44 26.5 °F 24.5 °F 29.80 in NE 13.0 mph 23.0 mph 92% 0.00 in 0.00 W/m2
22:49 26.4 °F 24.4 °F 29.80 in NE 22.0 mph 25.0 mph 92% 0.00 in 0.00 W/m2
22:54 26.4 °F 24.1 °F 29.80 in NNE 17.0 mph 27.0 mph 91% 0.00 in 0.00 W/m2
22:59 26.4 °F 24.1 °F 29.80 in NE 20.0 mph 27.0 mph 91% 0.00 in 0.00 W/m2
23:04 26.4 °F 24.1 °F 29.80 in NE 15.0 mph 26.0 mph 91% 0.00 in 0.00 W/m2
23:09 26.3 °F 23.8 °F 29.80 in NNE 14.0 mph 26.0 mph 90% 0.00 in 0.00 W/m2
23:14 26.4 °F 23.9 °F 29.79 in North 14.0 mph 25.0 mph 90% 0.00 in 0.00 W/m2
23:19 26.3 °F 23.8 °F 29.79 in North 14.0 mph 25.0 mph 90% 0.00 in 0.00 W/m2
23:24 26.3 °F 23.5 °F 29.79 in NE 12.0 mph 22.0 mph 89% 0.00 in 0.00 W/m2
23:29 26.4 °F 23.6 °F 29.79 in NNE 9.0 mph 22.0 mph 89% 0.00 in 0.00 W/m2
23:34 26.4 °F 23.6 °F 29.79 in NNE 15.0 mph 24.0 mph 89% 0.00 in 0.00 W/m2
23:39 26.4 °F 23.6 °F 29.79 in NE 17.0 mph 24.0 mph 89% 0.00 in 0.00 W/m2
23:44 26.5 °F 23.7 °F 29.79 in NE 16.0 mph 23.0 mph 89% 0.00 in 0.00 W/m2
23:49 26.4 °F 23.6 °F 29.79 in NE 14.0 mph 24.0 mph 89% 0.00 in 0.00 W/m2
23:54 26.3 °F 23.5 °F 29.78 in NNE 12.0 mph 24.0 mph 89% 0.00 in 0.00 W/m2
23:59 26.3 °F 23.5 °F 29.78 in NNE 12.0 mph 23.0 mph 89% 0.00 in 0.00 W/m2
Bismarck, North Dakota, USA
Compliments of Weather Underground - 4 mb